AEE572 LGTS-LGIR

Flight info

Callsign AEE572
Flight time 0h 58m
Altitude 23000
Route LEKPO L617 IBIDI/N0446F310 UL617 KEA UL607 GIVIS T514 XAVIS
Aircraft A320/M-SDE3FGHIRWY/LB1

Departure

Time 2026-05-04 17:40
Airport Thessaloniki Macedonia International Airport (LGTS)

Arrival

Time 2026-05-04 18:39
Airport Heraklion International Nikos Kazantzakis Airport (LGIR)
Time Latitude Longitude Altitude Speed Heading
2026-05-04 17:10 40.52323 22.97577 17 ft 0 kts 43°
2026-05-04 17:16 40.52497 22.97335 16 ft 0 kts 83°
2026-05-04 17:30 40.52488 22.97280 18 ft 4 kts 78°
2026-05-04 17:31 40.52490 22.97248 16 ft 0 kts 158°
2026-05-04 17:34 40.52419 22.97239 18 ft 7 kts 191°
2026-05-04 17:34 40.52371 22.97269 15 ft 9 kts 145°
2026-05-04 17:35 40.52170 22.97516 15 ft 12 kts 105°
2026-05-04 17:35 40.52103 22.97711 15 ft 14 kts 138°
2026-05-04 17:35 40.52046 22.97782 16 ft 4 kts 135°
2026-05-04 17:36 40.52019 22.97818 16 ft 7 kts 131°
2026-05-04 17:36 40.51990 22.97884 16 ft 10 kts 112°
2026-05-04 17:36 40.51969 22.97982 17 ft 13 kts 104°
2026-05-04 17:36 40.51947 22.98106 19 ft 15 kts 104°
2026-05-04 17:37 40.51917 22.98254 18 ft 18 kts 104°
2026-05-04 17:37 40.51889 22.98414 19 ft 19 kts 103°
2026-05-04 17:37 40.51862 22.98561 18 ft 10 kts 104°
2026-05-04 17:37 40.51847 22.98647 18 ft 8 kts 101°
2026-05-04 17:38 40.51808 22.98701 18 ft 10 kts 169°
2026-05-04 17:38 40.51751 22.98690 19 ft 8 kts 192°
2026-05-04 17:38 40.51695 22.98656 19 ft 10 kts 233°
2026-05-04 17:38 40.51689 22.98598 18 ft 0 kts 282°
2026-05-04 17:39 40.51692 22.98573 18 ft 7 kts 279°
2026-05-04 17:39 40.51745 22.98271 18 ft 79 kts 284°
2026-05-04 17:40 40.51947 22.97183 12 ft 161 kts 283°
2026-05-04 17:40 40.52233 22.95580 500 ft 191 kts 283°
2026-05-04 17:40 40.52569 22.93821 1360 ft 204 kts 285°
2026-05-04 17:40 40.52939 22.92003 2205 ft 207 kts 285°
2026-05-04 17:41 40.53319 22.90166 3095 ft 211 kts 287°
2026-05-04 17:41 40.53711 22.88274 3881 ft 218 kts 287°
2026-05-04 17:41 40.54115 22.86302 4616 ft 230 kts 288°
2026-05-04 17:41 40.54530 22.84213 5353 ft 242 kts 288°
2026-05-04 17:42 40.54946 22.82027 6173 ft 251 kts 282°
2026-05-04 17:42 40.54876 22.79711 7097 ft 259 kts 258°
2026-05-04 17:42 40.54102 22.77464 7632 ft 286 kts 237°
2026-05-04 17:42 40.52618 22.75511 7828 ft 321 kts 214°
2026-05-04 17:43 40.50486 22.74299 8041 ft 349 kts 193°
2026-05-04 17:43 40.47996 22.74131 8306 ft 370 kts 172°
2026-05-04 17:43 40.45477 22.75104 8580 ft 388 kts 153°
2026-05-04 17:43 40.43222 22.77154 8870 ft 403 kts 135°
2026-05-04 17:44 40.41261 22.79837 9368 ft 410 kts 131°
2026-05-04 17:44 40.39345 22.82593 9904 ft 409 kts 130°
2026-05-04 17:44 40.37429 22.85356 10443 ft 410 kts 130°
2026-05-04 17:44 40.35530 22.88087 10971 ft 389 kts 130°
2026-05-04 17:45 40.33816 22.90677 11398 ft 375 kts 123°
2026-05-04 17:45 40.32799 22.93801 11885 ft 369 kts 98°
2026-05-04 17:45 40.32588 22.97030 12364 ft 349 kts 90°
2026-05-04 17:45 40.32305 23.00176 12852 ft 350 kts 104°
2026-05-04 17:46 40.31118 23.02971 13364 ft 358 kts 130°
2026-05-04 17:46 40.29068 23.04841 13876 ft 365 kts 154°
2026-05-04 17:46 40.26699 23.06087 14329 ft 367 kts 155°
2026-05-04 17:46 40.24349 23.07414 14792 ft 369 kts 154°
2026-05-04 17:47 40.22025 23.08856 15254 ft 370 kts 152°
2026-05-04 17:47 40.19721 23.10381 15725 ft 372 kts 151°
2026-05-04 17:47 40.17406 23.11963 16022 ft 378 kts 150°
2026-05-04 17:47 40.15075 23.13573 16084 ft 380 kts 150°
2026-05-04 17:48 40.12739 23.15183 16084 ft 380 kts 150°
2026-05-04 17:48 40.10350 23.16657 16084 ft 381 kts 157°
2026-05-04 17:48 40.07872 23.17885 16084 ft 381 kts 158°
2026-05-04 17:48 40.05425 23.19094 16084 ft 381 kts 158°
2026-05-04 17:49 40.02946 23.20315 16086 ft 381 kts 158°
2026-05-04 17:49 40.00464 23.21533 16087 ft 381 kts 158°
2026-05-04 17:49 39.97968 23.22756 16420 ft 385 kts 158°
2026-05-04 17:49 39.95460 23.23983 17144 ft 386 kts 158°
2026-05-04 17:50 39.92934 23.25220 17825 ft 389 kts 158°
2026-05-04 17:50 39.90392 23.26470 18460 ft 393 kts 158°
2026-05-04 17:50 39.87824 23.27735 19033 ft 396 kts 158°
2026-05-04 17:50 39.85237 23.29007 19626 ft 399 kts 158°
2026-05-04 17:51 39.82630 23.30286 20215 ft 402 kts 158°
2026-05-04 17:51 39.80008 23.31569 20815 ft 404 kts 158°
2026-05-04 17:51 39.77372 23.32856 21410 ft 406 kts 158°
2026-05-04 17:51 39.74719 23.34148 21972 ft 408 kts 158°
2026-05-04 17:52 39.72051 23.35446 22517 ft 411 kts 158°
2026-05-04 17:52 39.69367 23.36755 23054 ft 413 kts 158°
2026-05-04 17:52 39.66671 23.38075 23600 ft 416 kts 158°
2026-05-04 17:52 39.63959 23.39402 24058 ft 418 kts 158°
2026-05-04 17:53 39.61230 23.40731 24511 ft 420 kts 158°
2026-05-04 17:53 39.58490 23.42064 24972 ft 422 kts 158°
2026-05-04 17:53 39.55734 23.43404 25397 ft 424 kts 158°
2026-05-04 17:53 39.52958 23.44752 25763 ft 428 kts 158°
2026-05-04 17:54 39.50160 23.46105 26174 ft 430 kts 158°
2026-05-04 17:54 39.47348 23.47461 26601 ft 432 kts 158°
2026-05-04 17:54 39.44523 23.48823 27040 ft 434 kts 158°
2026-05-04 17:54 39.41686 23.50194 27467 ft 436 kts 158°
2026-05-04 17:55 39.38835 23.51577 27907 ft 438 kts 158°
2026-05-04 17:55 39.35973 23.52971 28325 ft 440 kts 158°
2026-05-04 17:55 39.33098 23.54364 28743 ft 443 kts 158°
2026-05-04 17:55 39.30210 23.55758 29150 ft 445 kts 158°
2026-05-04 17:56 39.27300 23.57159 29547 ft 447 kts 158°
2026-05-04 17:56 39.24378 23.58564 29947 ft 449 kts 158°
2026-05-04 17:56 39.21443 23.59975 30314 ft 452 kts 158°
2026-05-04 17:56 39.18486 23.61395 30615 ft 455 kts 158°
2026-05-04 17:57 39.15503 23.62786 30960 ft 457 kts 159°
2026-05-04 17:57 39.12496 23.64110 31071 ft 454 kts 160°
2026-05-04 17:57 39.06532 23.66607 31094 ft 449 kts 161°
2026-05-04 17:58 39.00580 23.69084 31102 ft 450 kts 161°
2026-05-04 17:58 38.94640 23.71620 31110 ft 450 kts 160°
2026-05-04 17:59 38.88704 23.74174 31120 ft 450 kts 160°
2026-05-04 18:00 38.79785 23.77988 31100 ft 452 kts 160°
2026-05-04 18:00 38.73805 23.80532 31100 ft 454 kts 160°
2026-05-04 18:01 38.67792 23.83086 31117 ft 455 kts 160°
2026-05-04 18:01 38.61781 23.85633 31132 ft 455 kts 160°
2026-05-04 18:02 38.52766 23.89445 31129 ft 455 kts 161°
2026-05-04 18:02 38.46758 23.91975 31133 ft 454 kts 161°
2026-05-04 18:03 38.40757 23.94503 31137 ft 455 kts 161°
2026-05-04 18:03 38.34744 23.97029 31130 ft 455 kts 161°
2026-05-04 18:04 38.29734 23.99134 31115 ft 457 kts 161°
2026-05-04 18:05 38.20670 24.02938 31110 ft 458 kts 161°
2026-05-04 18:05 38.14614 24.05471 31116 ft 458 kts 161°
2026-05-04 18:06 38.05524 24.09263 31146 ft 458 kts 161°
2026-05-04 18:06 37.99464 24.11781 31148 ft 458 kts 161°
2026-05-04 18:07 37.93405 24.14291 31148 ft 458 kts 161°
2026-05-04 18:07 37.87355 24.16801 31134 ft 458 kts 161°
2026-05-04 18:08 37.81293 24.19325 31124 ft 459 kts 161°
2026-05-04 18:08 37.75217 24.21841 31125 ft 460 kts 161°
2026-05-04 18:09 37.63039 24.26863 31118 ft 462 kts 161°
2026-05-04 18:10 37.56933 24.29433 31112 ft 463 kts 157°
2026-05-04 18:10 37.51304 24.33341 31114 ft 463 kts 147°
2026-05-04 18:11 37.45842 24.37647 31125 ft 464 kts 147°
2026-05-04 18:11 37.40361 24.41927 31137 ft 464 kts 147°
2026-05-04 18:12 37.34877 24.46221 31120 ft 465 kts 147°
2026-05-04 18:12 37.29382 24.50527 31120 ft 466 kts 147°
2026-05-04 18:13 37.23879 24.54837 31123 ft 466 kts 147°
2026-05-04 18:14 37.15608 24.61288 31127 ft 467 kts 147°
2026-05-04 18:14 37.10076 24.65568 31116 ft 468 kts 147°
2026-05-04 18:15 36.98979 24.74170 31117 ft 470 kts 147°
2026-05-04 18:16 36.93415 24.78475 31123 ft 470 kts 147°
2026-05-04 18:16 36.87846 24.82782 31128 ft 471 kts 147°
2026-05-04 18:17 36.79486 24.89260 31098 ft 476 kts 147°
2026-05-04 18:18 36.71002 24.95804 31104 ft 480 kts 147°
2026-05-04 18:18 36.65310 25.00183 30803 ft 481 kts 147°
2026-05-04 18:18 36.62473 25.02354 30579 ft 476 kts 147°
2026-05-04 18:19 36.56864 25.06640 30081 ft 473 kts 147°
2026-05-04 18:19 36.54057 25.08783 29797 ft 474 kts 147°
2026-05-04 18:19 36.51245 25.10923 29509 ft 474 kts 147°
2026-05-04 18:20 36.48447 25.13050 28844 ft 470 kts 147°
2026-05-04 18:20 36.45677 25.15163 28158 ft 465 kts 147°
2026-05-04 18:20 36.42930 25.17263 27473 ft 462 kts 147°
2026-05-04 18:20 36.40207 25.19345 26787 ft 458 kts 147°
2026-05-04 18:21 36.37499 25.21415 26112 ft 455 kts 147°
2026-05-04 18:21 36.34813 25.23461 25441 ft 452 kts 147°
2026-05-04 18:21 36.32137 25.25492 24775 ft 449 kts 147°
2026-05-04 18:21 36.29479 25.27504 24139 ft 446 kts 147°
2026-05-04 18:22 36.26845 25.29495 23549 ft 441 kts 147°
2026-05-04 18:22 36.24245 25.31461 22970 ft 434 kts 147°
2026-05-04 18:22 36.21689 25.33393 22446 ft 427 kts 147°
2026-05-04 18:22 36.19165 25.35299 21902 ft 422 kts 147°
2026-05-04 18:23 36.16672 25.37182 21364 ft 418 kts 147°
2026-05-04 18:23 36.14204 25.39048 20843 ft 414 kts 147°
2026-05-04 18:23 36.11664 25.40689 20322 ft 411 kts 156°
2026-05-04 18:23 36.08993 25.41810 20117 ft 399 kts 161°
2026-05-04 18:24 36.06370 25.42853 19648 ft 395 kts 161°
2026-05-04 18:24 36.03768 25.43905 19097 ft 393 kts 161°
2026-05-04 18:24 36.01174 25.44958 18546 ft 391 kts 161°
2026-05-04 18:24 35.98593 25.46006 17945 ft 390 kts 161°
2026-05-04 18:25 35.96027 25.47045 17396 ft 386 kts 161°
2026-05-04 18:25 35.93486 25.48072 16847 ft 383 kts 161°
2026-05-04 18:25 35.90995 25.49075 16302 ft 380 kts 161°
2026-05-04 18:25 35.88486 25.50084 15756 ft 378 kts 161°
2026-05-04 18:26 35.85992 25.51085 15209 ft 376 kts 161°
2026-05-04 18:26 35.83514 25.52080 14664 ft 374 kts 161°
2026-05-04 18:26 35.81047 25.53067 14116 ft 372 kts 161°
2026-05-04 18:26 35.78593 25.54047 13541 ft 369 kts 161°
2026-05-04 18:27 35.76156 25.55019 12995 ft 366 kts 161°
2026-05-04 18:27 35.73746 25.55983 12456 ft 363 kts 161°
2026-05-04 18:27 35.71349 25.56950 11925 ft 361 kts 160°
2026-05-04 18:27 35.69086 25.58250 11399 ft 358 kts 147°
2026-05-04 18:28 35.67086 25.60047 10909 ft 355 kts 140°
2026-05-04 18:28 35.65171 25.61937 10563 ft 347 kts 140°
2026-05-04 18:28 35.63355 25.63727 10417 ft 323 kts 140°
2026-05-04 18:28 35.61564 25.65292 10103 ft 311 kts 154°
2026-05-04 18:29 35.59472 25.65918 9970 ft 311 kts 182°
2026-05-04 18:29 35.57393 25.65367 9760 ft 305 kts 210°
2026-05-04 18:29 35.55648 25.63965 9296 ft 299 kts 218°
2026-05-04 18:29 35.53751 25.62892 8851 ft 302 kts 201°
2026-05-04 18:30 35.49732 25.61546 7979 ft 297 kts 198°
2026-05-04 18:30 35.47754 25.60917 7583 ft 293 kts 198°
2026-05-04 18:30 35.45785 25.60292 7136 ft 291 kts 200°
2026-05-04 18:31 35.43863 25.59549 6698 ft 289 kts 203°
2026-05-04 18:31 35.41957 25.58769 6239 ft 288 kts 203°
2026-05-04 18:31 35.40061 25.57981 5773 ft 287 kts 203°
2026-05-04 18:31 35.38184 25.57181 5272 ft 284 kts 203°
2026-05-04 18:32 35.36340 25.56369 4760 ft 279 kts 203°
2026-05-04 18:32 35.34536 25.55567 4244 ft 273 kts 204°
2026-05-04 18:32 35.32822 25.54649 3735 ft 266 kts 208°
2026-05-04 18:32 35.31167 25.53680 3232 ft 262 kts 209°
2026-05-04 18:33 35.29702 25.52521 3002 ft 239 kts 232°
2026-05-04 18:33 35.29001 25.50832 3012 ft 219 kts 263°
2026-05-04 18:33 35.29050 25.49026 3002 ft 209 kts 288°
2026-05-04 18:33 35.29517 25.47337 3014 ft 211 kts 290°
2026-05-04 18:34 35.29985 25.45679 3012 ft 203 kts 290°
2026-05-04 18:34 35.30551 25.44103 3013 ft 202 kts 296°
2026-05-04 18:34 35.31135 25.42541 3011 ft 201 kts 298°
2026-05-04 18:34 35.31794 25.41066 3012 ft 193 kts 300°
2026-05-04 18:35 35.32453 25.39645 3015 ft 192 kts 300°
2026-05-04 18:35 35.33091 25.38214 3008 ft 192 kts 292°
2026-05-04 18:35 35.33223 25.36596 3015 ft 194 kts 267°
2026-05-04 18:35 35.33107 25.34948 2942 ft 196 kts 271°
2026-05-04 18:36 35.33102 25.33271 2621 ft 197 kts 273°
2026-05-04 18:36 35.33152 25.31593 2327 ft 196 kts 274°
2026-05-04 18:36 35.33227 25.29932 2104 ft 192 kts 275°
2026-05-04 18:36 35.33313 25.28327 1812 ft 187 kts 275°
2026-05-04 18:37 35.33404 25.26759 1509 ft 180 kts 276°
2026-05-04 18:37 35.33496 25.25266 1252 ft 174 kts 275°
2026-05-04 18:37 35.33588 25.23826 998 ft 166 kts 277°
2026-05-04 18:37 35.33675 25.22500 758 ft 146 kts 275°
2026-05-04 18:38 35.33754 25.21323 571 ft 135 kts 273°
2026-05-04 18:38 35.33806 25.20191 457 ft 134 kts 275°
2026-05-04 18:38 35.33887 25.19083 165 ft 129 kts 278°
2026-05-04 18:38 35.33976 25.18060 100 ft 101 kts 270°
2026-05-04 18:39 35.33999 25.17571 94 ft 14 kts 275°
2026-05-04 18:39 35.34005 25.17491 90 ft 18 kts 275°
2026-05-04 18:39 35.34015 25.17363 88 ft 13 kts 275°
2026-05-04 18:39 35.34022 25.17213 82 ft 16 kts 270°
2026-05-04 18:40 35.33995 25.17118 83 ft 7 kts 245°
2026-05-04 18:40 35.33969 25.17059 68 ft 4 kts 226°
2026-05-04 18:40 35.33962 25.17058 69 ft 0 kts 179°
2026-05-04 18:41 35.33961 25.17059 69 ft 1 kts 172°
2026-05-04 18:41 35.33943 25.17087 68 ft 7 kts 108°
2026-05-04 18:41 35.33937 25.17152 80 ft 7 kts 94°
2026-05-04 18:41 35.33933 25.17223 81 ft 9 kts 97°
2026-05-04 18:42 35.33926 25.17310 87 ft 9 kts 95°
2026-05-04 18:42 35.33893 25.17345 84 ft 9 kts 177°
2026-05-04 18:42 35.33845 25.17364 86 ft 8 kts 138°
2026-05-04 18:42 35.33842 25.17423 89 ft 6 kts 110°
2026-05-04 18:43 35.33835 25.17441 87 ft 0 kts 114°